www.pogodaiklimat.ru

Погода и климат >> Архив погоды >> Россия >> Забайкальский край >> Средняя Олекма


ПОГОДА в Средней Олекме

  • Прогноз погоды в Средней Олекме
  • Монитор погоды в Средней Олекме

АРХИВ ПОГОДЫ в Средней Олекме

Время (UTC), дата Ветер
(напр.,м/с)
 
Видим.   Явления Облачность Т
(С)
Тd
(С)
f
(%)
Тe
(С)
Тes
(С)
Комфортность P
(гПа)
Po
(гПа)
Тmin
(С)
Tmax
(С)
R
(мм)
R24
(мм)
S
(см)
03 20.05 С 7 50 км 10 баллов +11.3 -2.2 39 +9 +9 1009.6 948.0
06 20.05 С 7 50 км 10 баллов +14.5 -2.0 32 +13 +13 1007.5 946.7
09 20.05 С 3 50 км 10 баллов +15.1 -2.3 30 +15 +15 1005.9 945.3
12 20.05 С 5 50 км 10/0
[Ci sp]
+11.5 -3.6 35 +9 +9 1005.4 944.0 +15.2
15 20.05 С 3 н/о 10 баллов +8.2 -5.3 38 +6 +6 1008.9 946.7
18 20.05 штиль 0 н/о ясно +2.2 -6.1 54 +2 +2 1010.3 946.7
21 20.05 штиль 0 50 км ясно +4.8 -0.2 70 +4 +5 1008.2 945.3
00 21.05 СВ 9 50 км 10/0
[Ci fib]
+11.3 -2.4 38 +8 +9 1004.6 943.3 +2.2
03 21.05 СВ 3 50 км 10/0
[Ci sp]
+15.0 -0.7 34 +15 +15 1003.1 942.7
06 21.05 Ю 3 50 км 10 баллов +17.7 -0.1 30 +18 +18 1001.1 941.3
09 21.05 Ю 3 50 км 10/0
[Ci fib]
+18.7 +0.3 29 +19 +19 999.5 940.0
12 21.05 Ю 2 50 км 10/0
[Ci fib]
+15.2 -2.0 31 +15 +15 998.7 938.5 +18.8
15 21.05 штиль 0 н/о ясно +8.3 -6.6 34 +8 +8 1001.8 940.0
18 21.05 штиль 0 н/о ясно +1.6 -2.7 73 +1 +1 1003.3 940.0
21 21.05 штиль 0 50 км ясно -1.0 -2.7 88 -2 -1 1003.9 940.0
00 22.05 ЮВ 3 50 км 10/0
[Ci fib]
+10.1 -0.9 46 +8 +13 1000.5 939.2 -1.0
03 22.05 Ю 3 50 км 10/0
[Ci sp]
+17.7 -0.1 30 +18 +18 998.3 938.7
06 22.05 С 3 50 км 10/0
[Ci sp]
+22.1 +2.2 27 +22 +22 комфорт 993.1 934.7
09 22.05 штиль 0 50 км 10/0
[Ac lent Ci sp]
+22.9 +2.4 26 +22 +22 комфорт 991.5 933.3
12 22.05 З 3 50 км 10/0
[As op]
+19.9 +2.2 31 +20 +20 990.7 932.0 +23.0
15 22.05 штиль 0 н/о 10/0
[Ac lent Ci sp]
+15.5 +0.9 37 +16 +16 993.0 933.3
18 22.05 штиль 0 н/о 10/0
[As op]
+10.0 +3.5 64 +10 +10 994.2 933.3
21 22.05 штиль 0 50 км 10/0
[Ac lent Ci sp]
+9.8 +5.4 74 +9 +9 994.2 933.3
00 23.05 С 3 50 км 10/0
[Ci sp]
+16.5 +6.0 50 +16 +21 992.6 933.8 +9.7
03 23.05 ЮЗ 5 50 км 10/5 600 м
[Cb cap Ci sp]
+22.5 +7.5 38 +23 +23 комфорт 992.9 934.7
06 23.05 З 5 50 км 10/5 600 м
[Cu hum Ci sp]
+22.9 +3.9 29 +23 +23 комфорт 992.9 934.7
09 23.05 СВ 7 50 км 10/0
[As op]
+19.1 +1.6 31 +19 +19 995.1 936.0
12 23.05 С 3 50 км 10/0
[As op]
+15.5 +3.8 46 +15 +15 995.6 935.7 +23.0
15 23.05 штиль 0 н/о 10/0
[As op]
+13.1 +1.7 46 +13 +13 997.8 937.3
18 23.05 СВ 5 н/о 10/0
[As op]
+11.5 +1.2 49 +9 +9 998.1 937.3
21 23.05 штиль 0 10 км слаб. дождь 10/0
[As op]
+7.5 +7.4 99 +6 +6 998.9 937.3
00 24.05 С 3 10 км туман на расстоянии {дождь} 10/0
[As op]
+6.0 +5.8 99 +3 +4 999.0 937.0 +5.9 8
03 24.05 С 3 10 км туман на расстоянии 10 баллов +5.4 +5.3 99 +2 +2 1003.7 941.3
06 24.05 С 3 10 км осадки на расстоянии 10 баллов +8.4 +8.3 99 +6 +6 1004.5 942.7
09 24.05 Ю 3 50 км 10 баллов +11.9 +4.9 62 +10 +10 1003.7 942.7
12 24.05 штиль 0 50 км 10/0
[Ac lent Ci sp]
+9.0 +1.5 59 +9 +9 1004.4 942.7 +13.2 8
15 24.05 штиль 0 н/о 10 баллов +3.2 +3.1 99 +2 +2 1007.1 944.0
18 24.05 штиль 0 н/о 10 баллов -0.2 -0.5 98 -2 -2 1009.4 945.3
21 24.05 штиль 0 10 км туман на расстоянии 10 баллов -0.8 -1.1 98 -2 -2 1012.4 948.0
00 25.05 штиль 0 10 км туман на расстоянии 10/0
[Ac lent Ci sp]
+2.8 +2.5 98 +2 +6 1012.2 948.7 -0.8
03 25.05 Ю 3 10 км осадки на расстоянии 10 баллов +11.9 +1.5 49 +11 +11 1010.8 949.3
06 25.05 ЮВ 3 50 км 10 баллов +13.5 +1.5 44 +13 +13 1010.5 949.3
09 25.05 СВ 5 10 км осадки на расстоянии 10 баллов +11.0 +1.0 50 +9 +9 1011.0 949.3
12 25.05 штиль 0 50 км 10/0
[As op]
+8.8 0.0 54 +8 +8 1013.2 950.8 +13.6
15 25.05 штиль 0 н/о 10 баллов +6.2 +1.9 74 +5 +5 1016.4 953.3
18 25.05 штиль 0 н/о 10 баллов +3.5 +3.4 99 +2 +2 1019.8 956.0
21 25.05 штиль 0 50 км 10 баллов +2.4 +2.1 98 +1 +1 1020.1 956.0
00 26.05 штиль 0 50 км 10/0
[Ac trans Ci sp]
+6.8 +1.0 66 +6 +13 1019.7 956.5 +2.4
03 26.05 СЗ 5 50 км 10 баллов +12.3 -4.8 30 +11 +11 1019.3 957.3
06 26.05 З 5 50 км 10 баллов +15.1 -2.8 29 +14 +14 1017.3 956.0
09 26.05 С 3 50 км 10 баллов +14.5 -4.8 26 +14 +14 1016.0 954.7
12 26.05 штиль 0 50 км 10/0
[Ac lent Ci sp]
+10.2 -4.7 35 +10 +10 1015.5 953.3 +15.2
15 26.05 штиль 0 н/о 10 баллов +2.5 -1.5 75 +2 +2 1018.8 954.7
18 26.05 штиль 0 н/о 10 баллов -1.2 -1.5 98 -3 -3 1019.7 954.7
21 26.05 штиль 0 50 км 10 баллов -1.5 -1.8 98 -3 -3 1021.1 956.0
00 27.05 штиль 0 50 км 10/0
[Ci sp]
+5.5 -1.5 61 +5 +13 1018.3 954.8 -1.5

 

Местоположение метеостанции Средняя Олекма (Забайкальский край, Россия): широта 55.43 долгота 120.50 высота над уровнем моря 528 м.

В архиве по умолчанию представлена погода в Средней Олекме за последнюю неделю. Архивные данные за месяц целиком и за предыдущие месяцы, начиная с января 2011 года, Вы можете получить, выбрав интересующий диапазон дат из раскрывающегося списка и нажав кнопку "Ввод!".


*Определитесь, кто Вы:
робот инопланетянин человек

Внимание! Время в таблицах - всемирное. Для получения местного времени необходимо прибавить поправку, которая равна 9 ч.

Смотрите также архив погоды в соседних городах и на ближайших метеорологических станциях:

Погода в Тупике (Забайкальский край, Россия) (118 км)
Погода в Усть-Нюкже (Амурская область, Россия) (142 км)
Погода в Лопче (Амурская область, Россия) (143 км)
Погода в Амазаре (Забайкальский край, Россия) (175 км)
Погода в Ерофей Павловиче (Амурская область, Россия) (186 км)
Погода в Могоче (Забайкальский край, Россия) (194 км)
Погода в Удокане (Забайкальский край, Россия) (200 км)
Погода в Чаре (Забайкальский край, Россия) (217 км)
Погода в Большой Лепринде (Забайкальский край, Россия) (226 км)
Погода в Ксеньевской (Забайкальский край, Россия) (239 км)

Пояснения к столбцам:

Ветер - указаны скорость ветра в м/с - средняя за 10 мин, порывы в срок и между сроками (в фигурных скобках) и направление, откуда дует ветер: С - северный, СВ - северо-восточный, В - восточный, ЮВ - юго-восточный, Ю - южный, ЮЗ - юго-западный, З - западный, СЗ - северо-западный.
Видимость - горизонтальная дальность видимости в метрах или километрах. При видимости от 1 до 10 км при отсутствии осадков обычно наблюдается дымка, при ухудшении видимости до 1 км и менее - туман. В сухую погоду видимость может ухудшаться дымом, пылью или мглою.
Явления - указаны атмосферные явления, наблюдавшиеся в срок или в последний час перед сроком; фигурными скобками обозначены явления, наблюдавшиеся между сроками (за 1-3 часа до срока); квадратными скобками обозначены град или гололедные отложения с указанием их диаметра в мм.
Облачность - указаны через наклонную черту общая и нижняя облачность в баллах и высота нижней границы облаков в метрах; квадратными скобками обозначены формы облаков: Ci - перистые, Cs - перисто-слоистые, Cc - перисто-кучевые, Ac - высококучевые, As - высокослоистые, Sc - слоисто-кучевые, Ns - слоисто-дождевые, Cu - кучевые, Cb - кучево-дождевые. Подробнее классификацию облаков см. в Атласе облаков (PDF).
T - Температура воздуха - температура, измеренная на высоте 2 м над землей.
Td - Температура точки росы - температура, при понижении до которой содержащийся в воздухе водяной пар достигнет насыщения.
f - Относительная влажность воздуха - влажноcть воздуха, измеренная на высоте 2 м над землей.
Te - Эффективная температура - температура, которую ощущает одетый по сезону человек в тени. Характеристика душности погоды. При расчете учитывается влияние влажности воздуха и скорости ветра на теплоощущения человека.
Tes - Эффективная температура на солнце - температура, которую ощущает человек, с поправкой на солнечный нагрев. Характеристика знойности погоды. Зависит от высоты солнца над горизонтом, облачности и скорости ветра. Ночью, в пасмурную погоду, а также при ветре 12 м/с и более поправка равна нулю.
P - Атмосферное давление - приведенное к уровню моря атмосферное давление.
Po - Атмосферное давление - измеренное на уровне метеостанции атмосферное давление.
Tmin - Минимальная температура - минимум температуры воздуха на высоте 2 м над землей.
Tmax - Максимальная температура - максимум температуры воздуха на высоте 2 м над землей.
R - Количество осадков - Количество выпавших осадков за период времени, мм. При наведении курсора мыши на число - период времени, за который выпало указанное количество осадков.
R24 - Количество осадков - Количество выпавших осадков за 24 часа, мм.
S - Снежный покров - Высота снежного покрова, см. При наведении курсора мыши на число - состояние снежного покрова и степень покрытия местности в баллах.